DW2213 Sueca ES current weather conditions

sailwx.info

Wind from 095 at 4 knots gusting 7

Air temperature 29.4° C
Dewpoint 20.6° C

Last reported at 2019-Sep-18 11:07 UTC.
Time now 2019-Sep-18 11:49 UTC

Location: N 39°12' W 000°19'.
View on Google Maps.

See reports from other nearby stations

  
Tides and Currents Weather Stations Pressure Air Temp Water Temp Dewpoint Dewpoint Depression Visibility Wind Speed Wind Dir Waves Ship Positions
date/time (UTC)wind fromknots sea level pressurealtimeterstation pressurevisibilityair tempwater tempwave heightnotes
2019-Sep-18 11:07 095 4 gusting 7 29.4
2019-Sep-18 11:02 083 4 gusting 6 29.4
2019-Sep-18 10:52 104 2 gusting 7 30.0
2019-Sep-18 10:47 036 1 gusting 4 28.9
2019-Sep-18 10:32 132 1 gusting 6 29.4
2019-Sep-18 10:17 147 1 gusting 5 28.9
2019-Sep-18 10:07 084 0 gusting 2 28.9
2019-Sep-18 10:02 084 1 gusting 2 28.9
2019-Sep-18 09:57 083 1 gusting 2 28.3
2019-Sep-18 09:52 066 0 gusting 2 28.3
2019-Sep-18 09:37 183 1 gusting 2 27.8
2019-Sep-18 09:32 184 0 gusting 1 27.8
2019-Sep-18 09:27 184 27.8
2019-Sep-18 09:22 184 0 gusting 1 27.2
2019-Sep-18 09:17 184 0 gusting 2 27.2
2019-Sep-18 09:07 184 0 gusting 2 27.2
2019-Sep-18 09:02 184 1 gusting 2 27.2
2019-Sep-18 08:57 183 2 gusting 2 26.7
2019-Sep-18 08:52 250 0 gusting 2 26.7
2019-Sep-18 08:47 251 0 gusting 2 26.7
2019-Sep-18 08:32 233 1 gusting 5 25.6
2019-Sep-18 08:17 250 2 gusting 6 25.0
2019-Sep-18 08:07 248 0 gusting 5 25.0
2019-Sep-18 08:02 251 1 gusting 5 24.4
2019-Sep-18 07:52 249 1 gusting 5 24.4
2019-Sep-18 07:47 244 1 gusting 4 23.9
2019-Sep-18 07:42 247 0 gusting 4 23.3
2019-Sep-18 07:37 246 1 gusting 5 23.3
2019-Sep-18 07:32 248 2 gusting 6 22.8
2019-Sep-18 07:27 249 2 gusting 6 22.2
2019-Sep-18 07:17 252 1 gusting 5 21.7
2019-Sep-18 07:07 278 2 gusting 6 21.7
2019-Sep-18 06:47 263 1 gusting 6 20.6
2019-Sep-18 06:42 276 1 gusting 5 20.6
2019-Sep-18 06:37 257 1 gusting 5 20.6
2019-Sep-18 06:32 274 2 gusting 6 20.6
2019-Sep-18 06:22 275 0 gusting 5 20.6
2019-Sep-18 06:17 308 0 gusting 4 20.6
2019-Sep-18 06:12 296 2 gusting 5 20.0
2019-Sep-18 06:07 276 0 gusting 2 20.0
2019-Sep-18 06:02 269 0 gusting 2 20.0
2019-Sep-18 05:57 252 20.0
2019-Sep-18 05:32 251 0 gusting 2 20.0
2019-Sep-18 05:27 251 1 gusting 4 20.0
2019-Sep-18 05:22 246 1 gusting 4 20.0
2019-Sep-18 05:12 248 0 gusting 2 20.0
2019-Sep-18 04:57 267 0 gusting 1 20.0
2019-Sep-18 04:42 267 20.6
2019-Sep-18 04:37 267 0 gusting 1 20.6
2019-Sep-18 04:32 267 0 gusting 1 20.6
2019-Sep-18 04:22 267 0 gusting 2 20.6
2019-Sep-18 04:07 266 0 gusting 2 20.6
2019-Sep-18 03:52 272 0 gusting 1 20.6
2019-Sep-18 03:47 273 1 gusting 2 20.6
2019-Sep-18 03:42 274 1 gusting 4 20.6
2019-Sep-18 03:32 288 0 gusting 2 20.6
2019-Sep-18 03:22 269 1 gusting 4 20.6
2019-Sep-18 03:17 294 0 gusting 2 20.6
2019-Sep-18 03:12 288 1 gusting 6 20.6
2019-Sep-18 03:07 286 1 gusting 4 20.6
2019-Sep-18 02:57 276 2 gusting 5 20.6
2019-Sep-18 02:52 264 0 gusting 2 20.6
2019-Sep-18 02:47 264 0 gusting 2 20.6
2019-Sep-18 02:42 264 0 gusting 2 20.6
2019-Sep-18 02:37 264 20.6
2019-Sep-18 02:32 264 20.6
2019-Sep-18 02:17 264 20.6
2019-Sep-18 02:12 264 20.6
2019-Sep-18 02:07 264 20.6
2019-Sep-18 02:02 264 21.1
2019-Sep-18 01:57 264 0 gusting 1 21.1
2019-Sep-18 01:52 264 21.1
2019-Sep-18 01:42 264 21.1
2019-Sep-18 01:37 264 21.1
2019-Sep-18 01:32 264 21.1
2019-Sep-18 01:22 264 0 gusting 2 21.1
2019-Sep-18 01:12 263 0 gusting 1 21.7
2019-Sep-18 01:07 263 0 gusting 2 21.7
2019-Sep-18 00:57 263 21.7
2019-Sep-18 00:47 260 0 gusting 2 21.7
2019-Sep-18 00:42 180 21.7
2019-Sep-18 00:37 179 21.7
2019-Sep-18 00:32 179 21.7
2019-Sep-18 00:27 179 21.7
2019-Sep-18 00:22 179 21.7
2019-Sep-18 00:17 179 21.7
2019-Sep-18 00:12 179 22.2
2019-Sep-18 00:07 179 22.2
2019-Sep-18 00:02 179 22.2
2019-Sep-17 23:47 169 22.2
2019-Sep-17 23:42 168 1 gusting 4 22.2
2019-Sep-17 23:37 127 22.8
2019-Sep-17 23:32 126 22.8
2019-Sep-17 23:27 126 22.8
2019-Sep-17 23:17 126 22.8
2019-Sep-17 23:12 126 22.8
2019-Sep-17 23:07 126 22.8
2019-Sep-17 23:02 126 22.8
2019-Sep-17 22:57 126 1 gusting 4 22.8
2019-Sep-17 22:52 125 2 gusting 5 22.8
2019-Sep-17 22:47 124 1 gusting 4 22.8
2019-Sep-17 22:42 129 3 gusting 5 22.8
2019-Sep-17 22:37 146 2 gusting 4 22.2
2019-Sep-17 22:27 203 0 gusting 2 22.8
2019-Sep-17 22:08 237 22.8
2019-Sep-17 22:02 237 22.8
2019-Sep-17 21:47 206 1 gusting 2 22.8
2019-Sep-17 21:27 138 2 gusting 6 22.8
2019-Sep-17 21:22 167 3 gusting 6 22.8
2019-Sep-17 21:17 190 22.8
2019-Sep-17 21:12 190 0 gusting 2 22.8
2019-Sep-17 21:07 190 1 gusting 2 22.8
2019-Sep-17 20:52 188 1 gusting 2 23.3
2019-Sep-17 20:47 188 1 gusting 4 23.3
2019-Sep-17 20:42 191 2 gusting 2 23.3
2019-Sep-17 20:37 255 23.3
2019-Sep-17 20:32 313 1 gusting 2 23.3
2019-Sep-17 20:27 313 23.3
2019-Sep-17 20:22 313 23.3
2019-Sep-17 20:17 313 23.3
2019-Sep-17 20:07 317 0 gusting 4 23.3
2019-Sep-17 20:02 311 1 gusting 4 23.3
2019-Sep-17 19:52 340 0 gusting 2 23.3
2019-Sep-17 19:47 337 1 gusting 2 23.9
2019-Sep-17 19:42 336 0 gusting 2 23.9
2019-Sep-17 19:37 336 0 gusting 2 23.9
2019-Sep-17 19:32 336 1 gusting 2 23.9
2019-Sep-17 19:27 336 23.9
2019-Sep-17 19:22 336 1 gusting 2 24.4
2019-Sep-17 19:17 342 1 gusting 2 24.4
2019-Sep-17 19:07 059 0 gusting 2 24.4
2019-Sep-17 19:02 111 1 gusting 2 24.4
2019-Sep-17 18:52 132 25.0
2019-Sep-17 18:37 132 25.0
2019-Sep-17 18:32 132 25.0
2019-Sep-17 18:17 133 1 gusting 5 25.6
2019-Sep-17 18:07 130 2 gusting 5 25.6
2019-Sep-17 18:02 126 2 gusting 5 25.6
2019-Sep-17 17:52 144 5 gusting 6 25.6
2019-Sep-17 17:47 119 2 gusting 4 25.6
2019-Sep-17 17:42 115 3 gusting 6 26.1
2019-Sep-17 17:32 107 3 gusting 5 26.1
2019-Sep-17 17:27 125 3 gusting 5 26.1
2019-Sep-17 17:22 128 2 gusting 5 26.1
2019-Sep-17 17:12 161 4 gusting 6 26.1
2019-Sep-17 17:02 151 5 gusting 10 26.1
2019-Sep-17 16:57 120 3 gusting 6 26.1
2019-Sep-17 16:52 151 5 gusting 7 26.1
2019-Sep-17 16:47 147 7 gusting 10 26.1
2019-Sep-17 16:42 135 7 gusting 11 26.1
2019-Sep-17 16:32 138 7 gusting 13 26.1
2019-Sep-17 16:27 143 7 gusting 12 26.7
2019-Sep-17 16:22 137 8 gusting 12 26.7
2019-Sep-17 16:17 144 7 gusting 13 26.7
2019-Sep-17 15:57 136 6 gusting 10 27.2
2019-Sep-17 15:52 144 7 gusting 10 27.2
2019-Sep-17 15:42 138 5 gusting 10 27.2
2019-Sep-17 15:37 157 5 gusting 8 27.2
2019-Sep-17 15:32 153 6 gusting 10 27.2
2019-Sep-17 15:27 172 3 gusting 7 27.2
2019-Sep-17 15:22 130 4 gusting 6 27.2
2019-Sep-17 15:17 128 4 gusting 6 27.8
2019-Sep-17 14:57 120 4 gusting 6 27.2
2019-Sep-17 14:52 120 2 gusting 5 26.7
2019-Sep-17 14:42 151 6 gusting 8 26.7
2019-Sep-17 14:32 126 5 gusting 7 26.7
2019-Sep-17 14:27 167 6 gusting 6 26.7
2019-Sep-17 14:17 116 4 gusting 6 26.1
2019-Sep-17 13:57 103 6 gusting 7 26.1
2019-Sep-17 13:52 069 5 gusting 7 26.1
2019-Sep-17 13:47 083 4 gusting 7 26.1
2019-Sep-17 13:37 076 3 gusting 7 26.7
2019-Sep-17 13:27 121 4 gusting 7 27.2
2019-Sep-17 13:17 126 5 gusting 7 27.2
2019-Sep-17 13:12 119 6 gusting 10 27.8
2019-Sep-17 13:07 134 6 gusting 7 27.8
2019-Sep-17 13:02 113 2 gusting 6 27.8
2019-Sep-17 12:57 157 5 gusting 7 27.8
2019-Sep-17 12:52 163 4 gusting 8 27.8
2019-Sep-17 12:47 145 3 gusting 6 27.8
2019-Sep-17 12:22 119 4 gusting 7 27.8
2019-Sep-17 12:17 112 3 gusting 6 27.8
2019-Sep-17 12:12 146 5 gusting 6 27.8
2019-Sep-17 12:07 116 4 gusting 6 28.3
2019-Sep-17 11:42 138 2 gusting 5 28.3
2019-Sep-17 11:37 105 4 gusting 6 28.3
2019-Sep-17 11:27 110 5 gusting 7 28.3
2019-Sep-17 11:17 123 5 gusting 10 27.8
2019-Sep-17 11:12 135 5 gusting 10 28.3
2019-Sep-17 11:07 174 2 gusting 7 27.8
2019-Sep-17 11:02 122 5 gusting 7 27.8
2019-Sep-17 10:57 102 5 gusting 7 27.8
2019-Sep-17 10:52 116 2 gusting 6 27.8
2019-Sep-17 10:47 132 2 gusting 5 27.8
2019-Sep-17 10:42 090 27.8
2019-Sep-17 10:32 071 27.2
2019-Sep-17 10:27 071 0 gusting 2 27.2
2019-Sep-17 10:17 096 2 gusting 5 27.2
2019-Sep-17 10:12 053 0 gusting 2 26.7
2019-Sep-17 10:02 137 2 gusting 4 26.7
2019-Sep-17 09:57 140 26.1
2019-Sep-17 09:37 164 2 gusting 5 26.1
2019-Sep-17 09:32 163 25.6
2019-Sep-17 09:22 169 3 gusting 5 25.6
2019-Sep-17 09:12 102 0 gusting 2 25.0
2019-Sep-17 09:07 101 1 gusting 4 25.0
2019-Sep-17 08:52 096 2 gusting 5 25.0
2019-Sep-17 08:47 066 0 gusting 2 25.0
2019-Sep-17 08:42 063 1 gusting 2 24.4
2019-Sep-17 08:37 290 0 gusting 2 24.4
2019-Sep-17 08:27 289 0 gusting 2 23.9
2019-Sep-17 08:22 289 0 gusting 1 23.9
2019-Sep-17 08:17 289 0 gusting 2 23.9
2019-Sep-17 08:12 289 0 gusting 1 23.3
2019-Sep-17 08:02 289 0 gusting 1 22.8
2019-Sep-17 07:47 275 0 gusting 2 22.2
2019-Sep-17 07:42 272 0 gusting 2 22.2
2019-Sep-17 07:37 272 0 gusting 2 22.2
2019-Sep-17 07:17 272 21.1
2019-Sep-17 07:12 272 21.1
2019-Sep-17 07:07 271 21.1
2019-Sep-17 06:57 271 21.1
2019-Sep-17 06:52 271 21.1
2019-Sep-17 06:47 271 20.6
2019-Sep-17 06:42 271 20.6
2019-Sep-17 06:32 271 20.6
2019-Sep-17 06:17 271 20.6
2019-Sep-17 06:12 271 20.6
2019-Sep-17 06:02 271 20.6
2019-Sep-17 05:52 273 20.6
2019-Sep-17 05:47 273 20.6
2019-Sep-17 05:42 273 20.6
2019-Sep-17 05:37 273 20.6
2019-Sep-17 05:22 273 20.6
2019-Sep-17 05:12 273 20.6
2019-Sep-17 05:07 273 20.6
2019-Sep-17 04:57 273 20.6
2019-Sep-17 04:52 273 20.6
2019-Sep-17 04:47 273 20.6
2019-Sep-17 04:37 273 20.6
2019-Sep-17 04:32 273 20.6
2019-Sep-17 04:27 273 20.6
2019-Sep-17 04:22 273 20.6
2019-Sep-17 04:12 273 20.6
2019-Sep-17 04:07 273 20.6
2019-Sep-17 04:02 273 0 gusting 2 20.6
2019-Sep-17 03:57 275 20.6
2019-Sep-17 03:52 275 20.6
2019-Sep-17 03:47 274 20.6
2019-Sep-17 03:37 275 0 gusting 2 20.6
2019-Sep-17 03:32 275 20.6
2019-Sep-17 03:27 275 20.6
2019-Sep-17 03:17 275 20.6
2019-Sep-17 03:12 275 20.6
2019-Sep-17 02:57 269 0 gusting 2 20.6
2019-Sep-17 02:52 279 0 gusting 5 20.6
2019-Sep-17 02:47 242 0 gusting 2 20.6
2019-Sep-17 02:42 234 0 gusting 2 21.1
2019-Sep-17 02:27 200 0 gusting 2 21.1
2019-Sep-17 02:12 199 0 gusting 2 21.1
2019-Sep-17 02:07 198 21.1
2019-Sep-17 02:02 198 21.1
2019-Sep-17 01:57 198 21.1
2019-Sep-17 01:52 198 21.1
2019-Sep-17 01:47 198 21.1
2019-Sep-17 01:42 198 21.1
2019-Sep-17 01:37 198 21.1
2019-Sep-17 01:32 198 0 gusting 1 21.1
2019-Sep-17 01:22 197 21.1
2019-Sep-17 01:17 197 0 gusting 1 21.1
2019-Sep-17 01:12 197 21.1
2019-Sep-17 00:57 194 21.7
2019-Sep-17 00:52 194 21.7
2019-Sep-17 00:47 194 21.7
2019-Sep-17 00:37 192 21.7
2019-Sep-17 00:32 191 21.7
2019-Sep-17 00:27 191 21.7
2019-Sep-17 00:22 191 21.7
2019-Sep-17 00:17 191 21.7
2019-Sep-17 00:12 190 21.7
2019-Sep-17 00:07 190 21.7
2019-Sep-17 00:02 190 21.7
2019-Sep-16 23:57 190 21.7
2019-Sep-16 23:52 190 21.7
2019-Sep-16 23:47 190 21.7
2019-Sep-16 23:42 190 21.7
2019-Sep-16 23:37 190 21.7
2019-Sep-16 23:32 190 21.7
2019-Sep-16 23:22 190 22.2
2019-Sep-16 23:02 189 22.2
2019-Sep-16 22:52 188 0 gusting 1 22.2
2019-Sep-16 22:47 188 22.2
2019-Sep-16 22:37 181 0 gusting 2 22.8
2019-Sep-16 22:32 162 22.8
2019-Sep-16 22:27 161 22.8
2019-Sep-16 22:17 161 22.8
2019-Sep-16 22:02 160 0 gusting 2 22.8
2019-Sep-16 21:57 147 22.8
2019-Sep-16 21:52 133 0 gusting 1 22.8
2019-Sep-16 21:37 130 22.8
2019-Sep-16 21:32 130 23.3
2019-Sep-16 21:27 130 23.3
2019-Sep-16 21:22 130 23.3
2019-Sep-16 21:18 130 23.3
2019-Sep-16 21:07 129 23.3
2019-Sep-16 21:03 129 23.3
2019-Sep-16 20:57 129 23.3
2019-Sep-16 20:53 129 23.3
2019-Sep-16 20:43 129 23.9
2019-Sep-16 20:38 129 23.9
2019-Sep-16 20:33 129 23.9
2019-Sep-16 20:28 129 23.9
2019-Sep-16 20:23 129 23.9
2019-Sep-16 20:18 128 23.9
2019-Sep-16 20:13 128 23.9
2019-Sep-16 20:03 128 24.4
2019-Sep-16 19:58 128 24.4
2019-Sep-16 19:53 128 24.4
2019-Sep-16 19:43 128 24.4
2019-Sep-16 19:38 128 24.4
2019-Sep-16 19:33 128 24.4
2019-Sep-16 19:23 128 24.4
2019-Sep-16 19:18 128 24.4
2019-Sep-16 19:13 128 24.4
2019-Sep-16 19:03 128 1 gusting 2 24.4
2019-Sep-16 18:58 128 24.4
2019-Sep-16 18:53 128 1 gusting 2 24.4
2019-Sep-16 18:43 125 2 gusting 5 25.0
2019-Sep-16 18:38 080 1 gusting 4 25.0
2019-Sep-16 18:33 071 0 gusting 2 25.0
2019-Sep-16 18:28 077 0 gusting 2 25.0
2019-Sep-16 18:23 113 1 gusting 2 25.0
2019-Sep-16 18:18 114 25.0
2019-Sep-16 18:08 091 0 gusting 2 25.0
2019-Sep-16 18:03 091 0 gusting 4 25.6
2019-Sep-16 17:58 098 1 gusting 4 25.6
2019-Sep-16 17:53 095 2 gusting 5 25.6
2019-Sep-16 17:48 077 2 gusting 5 25.6
2019-Sep-16 17:43 106 2 gusting 6 25.6
2019-Sep-16 17:38 102 2 gusting 6 25.6
2019-Sep-16 17:28 048 1 gusting 5 25.6
2019-Sep-16 17:23 102 0 gusting 4 25.6
2019-Sep-16 17:18 109 2 gusting 6 25.6
2019-Sep-16 17:08 072 0 gusting 4 25.6
2019-Sep-16 17:03 034 0 gusting 5 25.6
2019-Sep-16 16:58 086 1 gusting 4 25.6
2019-Sep-16 16:43 055 1 gusting 6 26.1
2019-Sep-16 16:33 068 4 gusting 6 26.1
2019-Sep-16 16:18 081 2 gusting 5 26.7
2019-Sep-16 16:13 049 1 gusting 5 26.7
2019-Sep-16 16:03 094 4 gusting 6 26.7
2019-Sep-16 15:58 077 1 gusting 5 26.7
2019-Sep-16 15:53 095 5 gusting 7 26.7
2019-Sep-16 15:48 100 4 gusting 7 27.2
2019-Sep-16 15:43 096 3 gusting 6 27.2
2019-Sep-16 15:33 112 3 gusting 6 27.2
2019-Sep-16 15:28 088 1 gusting 7 27.2
2019-Sep-16 15:08 092 4 gusting 6 27.2
2019-Sep-16 14:58 113 5 gusting 7 27.2
2019-Sep-16 14:53 117 3 gusting 6 27.2
2019-Sep-16 14:48 088 2 gusting 7 27.2
2019-Sep-16 14:38 059 3 gusting 6 27.2
2019-Sep-16 14:33 150 5 gusting 6 27.2
2019-Sep-16 14:28 098 1 gusting 6 27.8
2019-Sep-16 14:23 113 4 gusting 7 27.8
2019-Sep-16 14:08 054 3 gusting 7 27.8
2019-Sep-16 13:58 034 0 gusting 6 27.8
2019-Sep-16 13:53 090 1 gusting 6 27.8
2019-Sep-16 13:48 042 1 gusting 6 28.3
2019-Sep-16 13:38 021 2 gusting 5 28.3
2019-Sep-16 13:23 049 1 gusting 4 27.8
2019-Sep-16 13:03 046 1 gusting 4 27.2
2019-Sep-16 12:58 003 2 gusting 6 27.2
2019-Sep-16 12:53 018 2 gusting 6 27.8
2019-Sep-16 12:48 096 1 gusting 6 27.8
2019-Sep-16 12:43 013 0 gusting 6 27.2
2019-Sep-16 12:38 071 0 gusting 5 27.2
2019-Sep-16 12:28 073 1 gusting 4 27.2
2019-Sep-16 12:23 017 1 gusting 5 27.8
2019-Sep-16 12:18 059 2 gusting 6 27.8
2019-Sep-16 12:13 051 0 gusting 5 27.2
2019-Sep-16 12:03 347 1 gusting 6 27.2
2019-Sep-16 11:53 040 2 gusting 4 27.2
2019-Sep-16 11:48 051 0 gusting 6 27.2
2019-Sep-16 11:28 037 2 gusting 8 27.2
2019-Sep-16 11:23 050 3 gusting 6 26.7
2019-Sep-16 11:18 024 4 gusting 6 26.7
2019-Sep-16 11:13 010 2 gusting 6 26.7
2019-Sep-16 11:08 352 4 gusting 6 26.7
2019-Sep-16 11:03 007 2 gusting 6 26.7